�������l�o���
Date,Time,MP-1(��Sv/h),MP-2(��Sv/h),MP-3(��Sv/h),MP-4(��Sv/h),MP-5(��Sv/h),MP-6(��Sv/h),MP-7(��Sv/h),����,����(m/s),���J
2019/03/10,00:00,0.209,0.186,0.301,0.283,0.273,0.152,0.093,��,3.5,��
2019/03/10,00:10,0.208,0.187,0.301,0.282,0.272,0.152,0.093,��,3.3,��
2019/03/10,00:20,0.209,0.188,0.302,0.283,0.274,0.152,0.092,��,3.3,��
2019/03/10,00:30,0.209,0.187,0.301,0.283,0.271,0.152,0.092,���쐼,2.4,��
2019/03/10,00:40,0.208,0.186,0.302,0.282,0.272,0.152,0.092,�쓌,2.6,��
2019/03/10,00:50,0.208,0.187,0.301,0.282,0.274,0.152,0.093,��,3.7,��
2019/03/10,01:00,0.209,0.186,0.302,0.283,0.272,0.152,0.093,��쐼,4.3,��
2019/03/10,01:10,0.208,0.186,0.302,0.282,0.273,0.152,0.094,�쐼,4.7,��
2019/03/10,01:20,0.208,0.187,0.301,0.283,0.275,0.152,0.092,��쐼,3.9,��
2019/03/10,01:30,0.208,0.187,0.302,0.283,0.272,0.151,0.092,��쐼,3.6,��
2019/03/10,01:40,0.209,0.186,0.302,0.283,0.273,0.152,0.092,��쐼,3.2,��
2019/03/10,01:50,0.208,0.186,0.301,0.281,0.272,0.152,0.093,��쐼,3.6,��
2019/03/10,02:00,0.209,0.187,0.302,0.282,0.273,0.151,0.092,��,3.9,��
2019/03/10,02:10,0.209,0.188,0.301,0.283,0.273,0.153,0.092,��,4.0,��
2019/03/10,02:20,0.208,0.185,0.301,0.282,0.273,0.152,0.093,��쐼,3.9,��
2019/03/10,02:30,0.207,0.187,0.302,0.282,0.272,0.152,0.092,��쐼,3.4,��
2019/03/10,02:40,0.208,0.187,0.302,0.283,0.272,0.152,0.092,��쐼,4.6,��
2019/03/10,02:50,0.209,0.187,0.301,0.283,0.274,0.151,0.093,���쐼,3.0,��
2019/03/10,03:00,0.209,0.186,0.301,0.282,0.273,0.152,0.093,���쐼,3.5,��
2019/03/10,03:10,0.208,0.187,0.302,0.283,0.273,0.151,0.092,��,3.7,��
2019/03/10,03:20,0.209,0.186,0.301,0.284,0.272,0.151,0.093,��,2.5,��
2019/03/10,03:30,0.209,0.186,0.301,0.284,0.273,0.151,0.092,�쐼,1.1,��
2019/03/10,03:40,0.209,0.187,0.302,0.282,0.273,0.152,0.093,��쐼,1.1,��
2019/03/10,03:50,0.209,0.188,0.302,0.282,0.273,0.152,0.092,-,CALM,��
2019/03/10,04:00,0.208,0.187,0.301,0.282,0.273,0.151,0.093,���k��,2.0,��
2019/03/10,04:10,0.210,0.187,0.302,0.283,0.273,0.152,0.093,���k��,2.2,��
2019/03/10,04:20,0.208,0.187,0.303,0.283,0.273,0.152,0.092,���k��,4.5,��
2019/03/10,04:30,0.209,0.187,0.302,0.282,0.274,0.152,0.093,��,8.5,��
2019/03/10,04:40,0.210,0.186,0.302,0.283,0.272,0.151,0.092,���k��,9.5,��
2019/03/10,04:50,0.209,0.186,0.301,0.280,0.273,0.152,0.092,��,8.1,��
2019/03/10,05:00,0.209,0.186,0.303,0.282,0.273,0.152,0.092,��,6.4,��
2019/03/10,05:10,0.209,0.187,0.302,0.284,0.273,0.152,0.092,��,5.0,��
2019/03/10,05:20,0.209,0.186,0.301,0.282,0.272,0.151,0.092,��,3.2,��
2019/03/10,05:30,0.209,0.186,0.302,0.282,0.273,0.151,0.093,��,3.5,��
2019/03/10,05:40,0.208,0.186,0.301,0.282,0.272,0.151,0.093,���쐼,3.2,��
2019/03/10,05:50,0.209,0.188,0.302,0.283,0.271,0.151,0.093,�쐼,3.5,��
2019/03/10,06:00,0.209,0.187,0.302,0.283,0.272,0.151,0.093,�쐼,2.8,��
2019/03/10,06:10,0.209,0.186,0.302,0.282,0.274,0.151,0.092,�쐼,2.4,��
2019/03/10,06:20,0.208,0.188,0.302,0.283,0.273,0.152,0.092,��쐼,2.4,��
2019/03/10,06:30,0.208,0.188,0.303,0.284,0.275,0.153,0.092,��,3.4,��
2019/03/10,06:40,0.210,0.187,0.302,0.283,0.274,0.152,0.093,��,4.4,��
2019/03/10,06:50,0.209,0.187,0.303,0.283,0.274,0.152,0.093,��쐼,4.1,��
2019/03/10,07:00,0.208,0.189,0.303,0.285,0.272,0.152,0.092,��쐼,3.1,��
2019/03/10,07:10,0.209,0.188,0.301,0.282,0.275,0.152,0.092,��쐼,2.2,��
2019/03/10,07:20,0.209,0.187,0.304,0.283,0.273,0.152,0.092,��쓌,2.4,��
2019/03/10,07:30,0.209,0.188,0.303,0.283,0.273,0.152,0.092,��,3.3,��
2019/03/10,07:40,0.209,0.188,0.303,0.282,0.273,0.153,0.092,��쐼,3.1,��
2019/03/10,07:50,0.209,0.187,0.303,0.283,0.272,0.151,0.092,�쐼,2.7,��
2019/03/10,08:00,0.208,0.187,0.302,0.284,0.273,0.153,0.093,�쐼,1.9,��
2019/03/10,08:10,0.208,0.188,0.300,0.282,0.272,0.152,0.092,���쐼,1.1,��
2019/03/10,08:20,0.209,0.185,0.302,0.282,0.272,0.152,0.092,�쐼,0.8,��
2019/03/10,08:30,0.210,0.187,0.302,0.281,0.274,0.152,0.092,�쐼,1.2,��
2019/03/10,08:40,0.209,0.185,0.301,0.281,0.273,0.153,0.093,��쓌,1.2,��
2019/03/10,08:50,0.209,0.186,0.301,0.282,0.274,0.152,0.092,��,1.8,��
2019/03/10,09:00,0.207,0.186,0.302,0.280,0.272,0.151,0.092,���쓌,2.0,��
2019/03/10,09:10,0.210,0.188,0.301,0.284,0.273,0.151,0.092,�쓌,2.3,��
2019/03/10,09:20,0.207,0.186,0.301,0.281,0.274,0.151,0.091,�쓌,2.7,��
2019/03/10,09:30,0.208,0.186,0.300,0.284,0.272,0.151,0.093,�쓌,2.5,��
2019/03/10,09:40,0.208,0.186,0.304,0.282,0.272,0.151,0.092,���쓌,2.4,��
2019/03/10,09:50,0.207,0.186,0.301,0.280,0.274,0.152,0.092,���쓌,3.4,��
2019/03/10,10:00,0.209,0.186,0.302,0.283,0.271,0.151,0.092,�쓌,3.1,��
2019/03/10,10:10,0.208,0.186,0.300,0.280,0.275,0.152,0.092,���쓌,3.1,��
2019/03/10,10:20,0.206,0.187,0.302,0.282,0.273,0.152,0.093,�쓌,3.3,��
2019/03/10,10:30,0.208,0.186,0.303,0.283,0.272,0.152,0.092,�쓌,4.3,��
2019/03/10,10:40,0.209,0.186,0.302,0.281,0.275,0.153,0.092,�쓌,4.4,��
2019/03/10,10:50,0.207,0.187,0.302,0.284,0.272,0.151,0.093,�쓌,5.1,��
2019/03/10,11:00,0.210,0.186,0.301,0.283,0.276,0.153,0.092,�쓌,5.3,��
2019/03/10,11:10,0.208,0.187,0.302,0.281,0.273,0.153,0.092,��쓌,5.8,��
2019/03/10,11:20,0.208,0.186,0.302,0.286,0.273,0.152,0.092,��쓌,6.2,��
2019/03/10,11:30,0.210,0.187,0.300,0.282,0.274,0.152,0.091,��쓌,6.4,��
2019/03/10,11:40,0.208,0.186,0.302,0.283,0.271,0.152,0.092,�쓌,6.3,��
2019/03/10,11:50,0.207,0.187,0.299,0.283,0.274,0.152,0.092,��쓌,6.9,��
2019/03/10,12:00,0.208,0.186,0.300,0.281,0.274,0.151,0.093,�쓌,6.0,��
2019/03/10,12:10,0.207,0.186,0.302,0.283,0.271,0.152,0.092,��쓌,7.3,��
2019/03/10,12:20,0.206,0.187,0.299,0.284,0.276,0.152,0.092,��쓌,7.6,��
2019/03/10,12:30,0.210,0.186,0.302,0.282,0.274,0.151,0.092,��쓌,6.6,��
2019/03/10,12:40,0.209,0.187,0.302,0.284,0.272,0.152,0.092,�쓌,6.3,��
2019/03/10,12:50,0.208,0.187,0.299,0.282,0.274,0.151,0.092,��,5.4,��
2019/03/10,13:00,0.211,0.187,0.303,0.284,0.271,0.152,0.092,��쓌,4.8,��
2019/03/10,13:10,0.207,0.186,0.300,0.284,0.275,0.152,0.092,��쓌,4.9,��
2019/03/10,13:20,0.208,0.185,0.300,0.282,0.273,0.152,0.093,��쓌,6.1,��
2019/03/10,13:30,0.208,0.187,0.304,0.285,0.273,0.152,0.092,��쓌,6.9,��
2019/03/10,13:40,0.208,0.187,0.300,0.283,0.274,0.152,0.092,��,6.5,��
2019/03/10,13:50,0.208,0.188,0.301,0.283,0.272,0.153,0.093,��쓌,5.6,��
2019/03/10,14:00,0.209,0.186,0.302,0.283,0.274,0.152,0.092,��쓌,6.1,��
2019/03/10,14:10,0.208,0.187,0.302,0.282,0.274,0.152,0.092,��쓌,5.9,��
2019/03/10,14:20,0.210,0.187,0.303,0.284,0.273,0.151,0.092,��쓌,6.5,��
2019/03/10,14:30,0.208,0.188,0.302,0.284,0.275,0.152,0.092,��쓌,6.9,��
2019/03/10,14:40,0.209,0.187,0.304,0.285,0.274,0.151,0.092,��,6.5,��
2019/03/10,14:50,0.208,0.188,0.301,0.283,0.275,0.152,0.092,��쓌,6.8,��
2019/03/10,15:00,0.209,0.186,0.303,0.284,0.273,0.152,0.093,��쓌,6.9,��
2019/03/10,15:10,0.208,0.188,0.303,0.284,0.275,0.153,0.092,��쓌,6.5,��
2019/03/10,15:20,0.209,0.187,0.303,0.285,0.272,0.152,0.092,��쓌,6.2,��
2019/03/10,15:30,0.209,0.188,0.303,0.285,0.276,0.152,0.092,��,5.7,��
2019/03/10,15:40,0.208,0.188,0.303,0.283,0.273,0.152,0.091,��,6.4,��
2019/03/10,15:50,0.209,0.187,0.304,0.285,0.274,0.152,0.092,��,6.1,��
2019/03/10,16:00,0.209,0.189,0.302,0.283,0.274,0.151,0.092,��쓌,6.3,��
2019/03/10,16:10,0.209,0.187,0.303,0.285,0.274,0.152,0.093,��쓌,5.6,��
2019/03/10,16:20,0.209,0.187,0.301,0.284,0.274,0.152,0.092,��쓌,6.2,��
2019/03/10,16:30,0.208,0.187,0.304,0.283,0.274,0.151,0.091,��쓌,6.5,��
2019/03/10,16:40,0.209,0.189,0.303,0.285,0.274,0.152,0.092,��,5.5,��
2019/03/10,16:50,0.208,0.187,0.303,0.284,0.274,0.151,0.092,��,4.9,��
2019/03/10,17:00,0.209,0.186,0.303,0.285,0.275,0.153,0.092,��,6.1,��
2019/03/10,17:10,0.208,0.188,0.301,0.283,0.274,0.152,0.092,��,5.5,��
2019/03/10,17:20,0.208,0.187,0.304,0.283,0.275,0.153,0.092,��,4.9,��
2019/03/10,17:30,0.209,0.187,0.303,0.284,0.274,0.152,0.092,��,4.6,��
2019/03/10,17:40,0.208,0.187,0.303,0.284,0.274,0.151,0.092,��,4.5,��
2019/03/10,17:50,0.210,0.187,0.303,0.285,0.275,0.152,0.092,��,4.7,��
2019/03/10,18:00,0.209,0.189,0.302,0.283,0.273,0.152,0.093,��,4.6,��
2019/03/10,18:10,0.210,0.187,0.303,0.283,0.276,0.152,0.092,��,4.3,��
2019/03/10,18:20,0.209,0.188,0.302,0.284,0.273,0.152,0.092,��쐼,4.3,��
2019/03/10,18:30,0.209,0.188,0.303,0.283,0.275,0.152,0.093,��쐼,3.5,��
2019/03/10,18:40,0.210,0.188,0.303,0.285,0.274,0.152,0.092,��,1.9,��
2019/03/10,18:50,0.209,0.187,0.302,0.284,0.273,0.153,0.092,��,1.1,��
2019/03/10,19:00,0.210,0.187,0.303,0.283,0.274,0.152,0.093,��,1.2,��
2019/03/10,19:10,0.208,0.187,0.302,0.284,0.274,0.153,0.092,��,1.8,��
2019/03/10,19:20,0.210,0.187,0.302,0.283,0.276,0.153,0.093,��쓌,2.3,��
2019/03/10,19:30,0.211,0.187,0.304,0.284,0.274,0.152,0.092,��쓌,2.0,��
2019/03/10,19:40,0.209,0.187,0.300,0.285,0.275,0.153,0.092,��쓌,1.9,��
2019/03/10,19:50,0.209,0.187,0.304,0.283,0.274,0.153,0.092,��쓌,1.2,��
2019/03/10,20:00,0.209,0.187,0.302,0.285,0.274,0.152,0.093,-,CALM,��
2019/03/10,20:10,0.210,0.188,0.302,0.285,0.276,0.153,0.093,��,0.8,��
2019/03/10,20:20,0.209,0.188,0.304,0.284,0.273,0.152,0.093,��,0.6,��
2019/03/10,20:30,0.209,0.187,0.303,0.285,0.276,0.152,0.093,�k��,0.7,��
2019/03/10,20:40,0.210,0.188,0.303,0.284,0.275,0.153,0.092,�k��,0.8,��
2019/03/10,20:50,0.209,0.188,0.304,0.283,0.275,0.153,0.093,�k�k��,0.7,��
2019/03/10,21:00,0.209,0.187,0.302,0.285,0.275,0.152,0.093,�k�k��,1.1,��
2019/03/10,21:10,0.211,0.188,0.304,0.283,0.274,0.153,0.093,�k,1.5,��
2019/03/10,21:20,0.208,0.188,0.302,0.284,0.274,0.153,0.093,�k,2.0,��
2019/03/10,21:30,0.210,0.187,0.302,0.286,0.275,0.153,0.093,�k�k��,2.8,��
2019/03/10,21:40,0.210,0.189,0.305,0.284,0.274,0.152,0.092,�k,3.7,��
2019/03/10,21:50,0.209,0.188,0.303,0.285,0.274,0.153,0.093,�k,2.9,��
2019/03/10,22:00,0.211,0.187,0.303,0.285,0.275,0.152,0.093,�k,3.6,��
2019/03/10,22:10,0.209,0.189,0.304,0.284,0.275,0.153,0.093,�k,3.5,��
2019/03/10,22:20,0.210,0.187,0.302,0.285,0.277,0.152,0.093,�k�k��,3.8,��
2019/03/10,22:30,0.211,0.188,0.305,0.286,0.274,0.153,0.093,�k�k��,5.6,��
2019/03/10,22:40,0.209,0.187,0.304,0.285,0.276,0.153,0.092,�k�k��,7.7,��
2019/03/10,22:50,0.209,0.189,0.303,0.286,0.275,0.153,0.093,�k�k��,7.5,�L
2019/03/10,23:00,0.210,0.187,0.304,0.286,0.274,0.154,0.094,�k�k��,6.9,��
2019/03/10,23:10,0.209,0.188,0.303,0.285,0.277,0.153,0.093,�k�k��,7.3,��
2019/03/10,23:20,0.210,0.188,0.302,0.287,0.273,0.152,0.093,�k�k��,6.8,�L
2019/03/10,23:30,0.210,0.188,0.303,0.284,0.275,0.152,0.093,�k�k��,8.2,�L
2019/03/10,23:40,0.210,0.189,0.305,0.285,0.275,0.153,0.093,�k��,6.4,��
2019/03/10,23:50,0.211,0.188,0.304,0.286,0.274,0.152,0.092,�k,9.0,�L
